Find Local Weather

World > North America > United States > North Carolina

Nathans Creek, North Carolina Regional Weather

Lat: 36.45N, Lon: 81.39W
Wx Zone: NCZ001
Feedback

Nathans Creek, NC Regional Weather

Expires:201905202100;;183919
ASUS42 KRAH 202010
RWRRAH
NORTH CAROLINA WEATHER ROUNDUP
NATIONAL WEATHER SERVICE RALEIGH NC
400 PM EDT MON MAY 20 2019

NOTE: "FAIR" INDICATES FEW OR NO CLOUDS BELOW 12,000 FEET WITH NO
SIGNIFICANT WEATHER AND/OR OBSTRUCTIONS TO VISIBILITY.


NCZ001-053-055-056-065-067-202100-
WESTERN NORTH CAROLINA
  
CITY           SKY/WX    TMP DP  RH WIND       PRES   REMARKS
ASHEVILLE      FAIR      82  58  43 N14       30.01F                  
JEFFERSON      FAIR      75  51  42 W20G25    30.06F                  
MORGANTON      PTSUNNY   81  60  49 S5        29.98F                  
HICKORY        FAIR      82  62  50 SW10      29.94F                  
WILKESBORO     NOT AVBL                                               
RUTHERFORDTON  PTSUNNY   81  63  54 SW6       29.96F                  
MOUNT AIRY     FAIR      83  67  58 S3        29.95F                  
BOONE          FAIR      76  46  35 NW18G24   30.06F                  
$$
 

SKY/WX - Weather  TMP - Temperature  DP - Dew Point  RH - Relative Humidity
WIND - Wind Direction/Speed PRES - Barometric Pressure VSB - Visibility
WCI - Wind Chill Index E13G22 Wind - East Wind 13 mph/Gusts of 22 mph